sat.trackr.live / text

‹ back to catalog

STARLINK-3727

NORAD 52125 · 2022-029AP

PAYLOAD ACTIVE UNKNOWN

§ Identity

Operator
Country
US
Launch date
2022-03-19
Launch site
AFETR
Launch vehicle
Mass (kg)
RCS (m²)

Purposes: comms

External: N2YO · Heavens-Above · Gunter

§ Orbital elements

Epoch: 2026-05-25T03:08:28.808736Z

Period
95.44 min
Inclination
53.2129°
Eccentricity
0.0001495
Mean motion
15.08839297 rev/d
Perigee alt
538.7 km
Apogee alt
540.8 km
Semi-major
6,917.9 km
B*
-1.0416e-5
RAAN
85.9620°
Arg perigee
81.3809°
Mean anomaly
278.7352°
Rev number
23,247

§ Raw data

STARLINK-37271 52125U 22029AP  26145.13088899 -.00000454  00000+0 -10416-4 0  99942 52125  53.2129  85.9620 0001495  81.3809 278.7352 15.08839297232471

JSON: /api/v1/satellites/52125 · /tle

For live sub-satellite position, see the globe view (requires WebGL).

§ Visibility from observer

Set your observer location to see the next 7 days of passes ≥ 10°. The values pass through the URL so the page stays shareable.

No JS? Fill the form by hand. The geolocation button needs JavaScript.